Flag for Ireland Weather past 2 weeks in Galway, Ireland

Now
59 °F

Broken clouds.


Feels Like: 58 °F
Forecast: 53 / 62 °F
Wind: 8 mph from Northwest

Location: Shannon Airport

Current Time: Oct 1, 2014 at 1:00:20 PM

Latest Report: Oct 1, 2014 at 12:30 PM


Visibility: N/A

Pressure: 30.30 "Hg

Humidity: 51%

Dew point: 41 °F

Location of GalwayLocation

Historic Weather in Galway — Graph

°F

Galway temperature yesterday

Maximum temperature yesterday: 68 °F (at 12:00 PM)
Minimum temperature yesterday: 55 °F (at 9:00 PM)
Average temperature yesterday: 60 °F

Past Weeks' High & Low Weather Summary

 TemperatureHumidityPressure
High72 °F (Sep 17, 4:30 PM)100% (Sep 17, 3:30 AM)30.36 "Hg (Sep 17, 3:30 AM)
Low43 °F (Sep 21, 7:00 AM)39% (Sep 26, 1:00 PM)29.77 "Hg (Sep 18, 2:00 PM)
Average59 °F81%30.08 "Hg
* Reported Sep 16 12:00 Noon — Oct 1 12:00 Noon, Galway, Weather by CustomWeather, © 2014

Note: Actual official high and low records may vary slightly from our data, if they occured in-between our weather recording intervals... More about our weather records

Advertising

Galway weather history for previous 24 hours

 ConditionsComfort  
Time TempWeatherWind HumidityBarometerVisibility
12:00 PM
Oct 1
57 °FBroken clouds.9 mph63%30.30 "HgN/A
11:30 AM55 °FBroken clouds.6 mph82%30.27 "HgN/A
11:00 AM57 °FPartly sunny.8 mph72%30.27 "HgN/A
10:30 AM57 °FPartly sunny.5 mph82%30.27 "HgN/A
10:00 AM55 °FBroken clouds.5 mph88%30.24 "HgN/A
9:30 AM55 °FBroken clouds.5 mph88%30.24 "HgN/A
9:00 AM54 °FBroken clouds.No wind94%30.21 "HgN/A
8:30 AM54 °FPartly cloudy.6 mph94%30.21 "HgN/A
8:00 AM54 °FPassing clouds.7 mph94%30.21 "Hg2 mi
7:30 AM54 °FPartly cloudy.2 mph94%30.18 "HgN/A
7:00 AM54 °FPartly cloudy.2 mph94%30.15 "HgN/A
6:30 AM54 °FPartly cloudy.3 mph94%30.15 "HgN/A
6:00 AM54 °FPassing clouds.7 mph94%30.15 "Hg4 mi
5:30 AM54 °FPassing clouds.12 mph94%30.12 "Hg6 mi
5:00 AM59 °FDrizzle. Overcast.5 mph88%30.09 "Hg6 mi
4:30 AM59 °FPartly cloudy.12 mph88%30.09 "HgN/A
4:00 AM57 °FPartly cloudy.9 mph94%30.07 "HgN/A
3:30 AM57 °FPartly cloudy.10 mph88%30.09 "HgN/A
3:00 AM57 °FPassing clouds.12 mph88%30.09 "HgN/A
2:30 AM57 °FPassing clouds.9 mph88%30.09 "HgN/A
2:00 AM57 °FPassing clouds.12 mph88%30.09 "HgN/A
1:30 AM57 °FDrizzle. Mostly cloudy.12 mph77%30.07 "HgN/A
1:00 AM59 °FPassing clouds.10 mph72%30.07 "HgN/A
12:30 AM57 °FPassing clouds.9 mph82%30.07 "HgN/A
12:00 AM57 °FPassing clouds.10 mph82%30.07 "HgN/A
11:30 PM
Sep 30
57 °FPassing clouds.14 mph82%30.07 "HgN/A
11:00 PM57 °FPassing clouds.9 mph82%30.07 "HgN/A
10:30 PM55 °FPassing clouds.8 mph88%30.07 "HgN/A
9:30 PM55 °FPassing clouds.6 mph88%30.09 "HgN/A
9:00 PM55 °FPassing clouds.8 mph82%30.09 "HgN/A
8:30 PM57 °FPassing clouds.7 mph77%30.09 "HgN/A
8:00 PM57 °FPassing clouds.6 mph77%30.07 "HgN/A
7:30 PM59 °FPassing clouds.8 mph72%30.07 "HgN/A
7:00 PM59 °FPassing clouds.10 mph72%30.07 "HgN/A
6:30 PM59 °FPassing clouds.13 mph68%30.07 "HgN/A
6:00 PM61 °FPassing clouds.16 mph68%30.04 "HgN/A
5:30 PM59 °FScattered clouds.16 mph72%30.04 "HgN/A
5:00 PM61 °FPartly sunny.17 mph72%30.04 "HgN/A
4:30 PM61 °FPartly sunny.16 mph83%30.04 "HgN/A
4:00 PM63 °FScattered clouds.16 mph77%30.01 "HgN/A
3:30 PM63 °FDrizzle. Broken clouds.18 mph88%30.01 "Hg2 mi
3:00 PM64 °FPartly sunny.15 mph83%30.01 "HgN/A
2:30 PM64 °FScattered showers. Partly sunny.10 mph94%29.98 "HgN/A
2:00 PM66 °FScattered showers. Partly sunny.14 mph83%29.98 "HgN/A
1:30 PM66 °FPartly sunny.13 mph83%29.98 "HgN/A
1:00 PM68 °FBroken clouds.9 mph69%29.98 "HgN/A
Weather by CustomWeather, © 2014

See weather overviewHow to use our weather pages